Weather History for Comanche, TX

Change the Weather History Date:

Friday, February 14, 2014

  Actual Average (KSEP) Record (KSEP)
Temperature  
Mean Temperature 60 °F -  
Max Temperature 71 °F 64 °F 85 °F (1979)
Min Temperature 48 °F 41 °F 18 °F (1951)
Degree Days  
Heating Degree Days 6    
Growing Degree Days 10 (Base 50)    
Moisture  
Dew Point 29 °F    
Average Humidity 32    
Maximum Humidity 52    
Minimum Humidity 19    
Precipitation  
Precipitation 0.00 in - - ()
Sea Level Pressure  
Sea Level Pressure 29.93 in    
Wind  
Wind Speed 15 mph (NW)    
Max Wind Speed 29 mph    
Max Gust Speed 39 mph    
Visibility 10 miles    
Events      
Averages and records for this station are not official NWS values.
T = Trace of Precipitation, MM = Missing Value Source: NWS Daily Summary

Daily Weather History Graph

Daily Weather History Graph

Search for Another Location

Airport:

Trip Planner

Search our weather history database for the weather conditions in past years. The results will help you decide how hot, cold, wet, or windy it might be!

Date:

Astronomy

Feb. 14, 2014 Rise Set
Actual Time 7:17 AM CST 6:20 PM CST
Civil Twilight 6:52 AM CST 6:45 PM CST
Nautical Twilight 6:23 AM CST 7:13 PM CST
Astronomical Twilight 5:55 AM CST 7:42 PM CST
Moon 6:22 PM CST (2/14) 6:47 AM CST (2/14)
Length of Visible Light 11h 52m
Length of Day
11h 02m
Full, 100% of the Moon is Illuminated
Feb 14
Full
Feb 14
Full
Feb 22
Last Quarter
Mar 1
New
Mar 8
First Quarter

Hourly Weather History & Observations

Time (CST) Temp. Dew Point Humidity Pressure Visibility Wind Dir Wind Speed Gust Speed Precip Events Conditions
12:15 AM 58.5 °F 32.0 °F 37% 29.86 in 10.0 mi SW 16.1 mph 27.6 mph N/A   Clear
12:35 AM 57.6 °F 32.0 °F 38% 29.85 in 10.0 mi SW 15.0 mph 23.0 mph N/A   Clear
12:55 AM 57.2 °F 32.0 °F 38% 29.84 in 10.0 mi SW 17.3 mph 25.3 mph N/A   Clear
1:15 AM 57.2 °F 32.0 °F 38% 29.83 in 10.0 mi SW 18.4 mph 25.3 mph N/A   Clear
1:35 AM 56.5 °F 32.0 °F 39% 29.82 in 10.0 mi SW 18.4 mph 26.5 mph N/A   Clear
1:55 AM 55.9 °F 32.0 °F 40% 29.82 in 10.0 mi SW 18.4 mph 27.6 mph N/A   Clear
2:15 AM 54.1 °F 32.4 °F 44% 29.82 in 10.0 mi SSW 15.0 mph - N/A   Clear
2:35 AM 52.7 °F 32.7 °F 47% 29.81 in 10.0 mi SSW 13.8 mph - N/A   Clear
2:55 AM 50.2 °F 32.9 °F 52% 29.80 in 10.0 mi SSW 11.5 mph - N/A   Clear
3:15 AM 52.2 °F 32.9 °F 48% 29.80 in 10.0 mi SSW 12.7 mph 18.4 mph N/A   Clear
3:35 AM 52.9 °F 32.5 °F 46% 29.80 in 10.0 mi SSW 12.7 mph - N/A   Clear
3:55 AM 53.1 °F 32.5 °F 46% 29.79 in 10.0 mi SSW 9.2 mph - N/A   Clear
4:15 AM 54.1 °F 32.2 °F 43% 29.78 in 10.0 mi SW 13.8 mph 19.6 mph N/A   Clear
4:35 AM 54.1 °F 32.4 °F 44% 29.78 in 10.0 mi SW 13.8 mph 19.6 mph N/A   Clear
4:55 AM 53.8 °F 32.4 °F 44% 29.77 in 10.0 mi SW 12.7 mph 19.6 mph N/A   Clear
5:15 AM 53.6 °F 32.5 °F 45% 29.77 in 10.0 mi SW 11.5 mph 17.3 mph N/A   Clear
5:35 AM 53.2 °F 32.5 °F 45% 29.75 in 10.0 mi SW 15.0 mph 18.4 mph N/A   Clear
5:55 AM 52.7 °F 32.9 °F 47% 29.75 in 10.0 mi SW 12.7 mph 20.7 mph N/A   Clear
6:15 AM 52.7 °F 32.9 °F 47% 29.76 in 10.0 mi SW 10.4 mph 21.9 mph N/A   Clear
6:35 AM 52.7 °F 33.1 °F 47% 29.76 in 10.0 mi WSW 8.1 mph 16.1 mph N/A   Clear
6:55 AM 52.5 °F 33.3 °F 48% 29.77 in 10.0 mi WSW 11.5 mph 16.1 mph N/A   Clear
7:15 AM 52.7 °F 33.3 °F 48% 29.77 in 10.0 mi WSW 15.0 mph 31.1 mph N/A   Clear
7:35 AM 51.8 °F 33.6 °F 50% 29.78 in 10.0 mi West 8.1 mph 20.7 mph N/A   Clear
7:55 AM 54.3 °F 34.2 °F 47% 29.78 in 10.0 mi WSW 15.0 mph 23.0 mph N/A   Clear
8:15 AM 55.6 °F 33.8 °F 44% 29.80 in 10.0 mi West 17.3 mph 28.8 mph N/A   Clear
8:35 AM 56.3 °F 33.4 °F 42% 29.80 in 10.0 mi West 16.1 mph 25.3 mph N/A   Clear
8:55 AM 58.5 °F 32.9 °F 38% 29.82 in 10.0 mi West 18.4 mph 23.0 mph N/A   Clear
9:15 AM 60.8 °F 32.0 °F 34% 29.83 in 10.0 mi WNW 15.0 mph 21.9 mph N/A   Clear
9:35 AM 63.1 °F 31.6 °F 31% 29.84 in 10.0 mi WNW 16.1 mph 21.9 mph N/A   Clear
9:55 AM 64.4 °F 31.1 °F 29% 29.86 in 10.0 mi NW 17.3 mph 25.3 mph N/A   Clear
10:15 AM 66.6 °F 30.7 °F 26% 29.87 in 10.0 mi NNW 19.6 mph 27.6 mph N/A   Clear
10:35 AM 68.5 °F 30.2 °F 24% 29.89 in 10.0 mi NW 12.7 mph 32.2 mph N/A   Clear
10:55 AM 68.7 °F 29.8 °F 24% 29.91 in 10.0 mi NNW 19.6 mph 28.8 mph N/A   Clear
11:15 AM 69.6 °F 30.7 °F 24% 29.92 in 10.0 mi North 24.2 mph 29.9 mph N/A   Clear
11:35 AM 69.3 °F 30.0 °F 23% 29.92 in 10.0 mi North 19.6 mph 38.0 mph N/A   Clear
11:55 AM 70.5 °F 29.5 °F 22% 29.94 in 10.0 mi North 25.3 mph 29.9 mph N/A   Clear
12:15 PM 71.2 °F 28.6 °F 20% 29.96 in 10.0 mi North 26.5 mph 32.2 mph N/A   Clear
12:35 PM 70.7 °F 29.1 °F 21% 29.97 in 10.0 mi North 26.5 mph 39.1 mph N/A   Clear
12:55 PM 70.9 °F 30.2 °F 22% 29.97 in 10.0 mi North 19.6 mph 35.7 mph N/A   Clear
1:15 PM 71.2 °F 30.2 °F 22% 29.98 in 10.0 mi North 23.0 mph 34.5 mph N/A   Clear
1:35 PM 71.4 °F 29.7 °F 21% 29.99 in 10.0 mi North 28.8 mph 34.5 mph N/A   Clear
1:55 PM 70.7 °F 29.7 °F 22% 29.98 in 10.0 mi North 23.0 mph 35.7 mph N/A   Clear
2:15 PM 70.7 °F 30.0 °F 22% 29.99 in 10.0 mi North 26.5 mph 34.5 mph N/A   Clear
2:35 PM 70.0 °F 29.5 °F 22% 29.97 in 10.0 mi North 26.5 mph 34.5 mph N/A   Clear
2:55 PM 69.8 °F 28.9 °F 22% 29.98 in 10.0 mi North 21.9 mph 29.9 mph N/A   Clear
3:15 PM 68.5 °F 27.9 °F 22% 29.97 in 10.0 mi NNE 27.6 mph 34.5 mph N/A   Clear
3:35 PM 67.5 °F 27.5 °F 22% 29.99 in 10.0 mi North 24.2 mph 29.9 mph N/A   Clear
3:55 PM 66.6 °F 27.3 °F 23% 29.99 in 10.0 mi North 21.9 mph 28.8 mph N/A   Clear
4:15 PM 66.4 °F 27.1 °F 23% 30.00 in 10.0 mi North 19.6 mph 23.0 mph N/A   Clear
4:35 PM 66.2 °F 22.5 °F 19% 30.00 in 10.0 mi NNE 23.0 mph 29.9 mph N/A   Clear
4:55 PM 66.4 °F 23.4 °F 20% 30.01 in 10.0 mi North 19.6 mph 29.9 mph N/A   Clear
5:15 PM 64.6 °F 22.5 °F 20% 30.02 in 10.0 mi North 20.7 mph 28.8 mph N/A   Clear
5:35 PM 63.9 °F 23.0 °F 21% 30.03 in 10.0 mi North 13.8 mph - N/A   Clear
5:55 PM 62.8 °F 23.9 °F 23% 30.04 in 10.0 mi North 10.4 mph - N/A   Clear
6:15 PM 60.8 °F 25.5 °F 26% 30.05 in 10.0 mi North 8.1 mph - N/A   Clear
6:35 PM 58.8 °F 24.6 °F 27% 30.06 in 10.0 mi North 5.8 mph - N/A   Clear
6:55 PM 57.2 °F 23.9 °F 28% 30.07 in 10.0 mi North 8.1 mph - N/A   Clear
7:15 PM 56.7 °F 23.2 °F 27% 30.08 in 10.0 mi North 6.9 mph - N/A   Clear
7:35 PM 57.2 °F 22.3 °F 26% 30.07 in 10.0 mi North 3.5 mph - N/A   Clear
7:55 PM 56.8 °F 22.1 °F 26% 30.08 in 10.0 mi North 5.8 mph - N/A   Clear
8:15 PM 57.0 °F 21.7 °F 26% 30.08 in 10.0 mi North 4.6 mph - N/A   Clear
8:35 PM 55.2 °F 21.9 °F 27% 30.09 in 10.0 mi North 4.6 mph - N/A   Clear
8:55 PM 54.5 °F 21.9 °F 28% 30.09 in 10.0 mi North 5.8 mph - N/A   Clear
9:15 PM 53.1 °F 22.3 °F 30% 30.10 in 10.0 mi North 4.6 mph - N/A   Clear
9:35 PM 53.6 °F 21.6 °F 29% 30.11 in 10.0 mi NNW 4.6 mph - N/A   Clear
9:55 PM 53.1 °F 21.9 °F 30% 30.11 in 10.0 mi NNW 4.6 mph - N/A   Clear
10:15 PM 52.0 °F 22.3 °F 31% 30.11 in 10.0 mi NW 4.6 mph - N/A   Clear
10:35 PM 52.2 °F 21.7 °F 30% 30.10 in 10.0 mi Calm Calm - N/A   Clear
10:55 PM 48.9 °F 22.1 °F 35% 30.09 in 10.0 mi Calm Calm - N/A   Clear
11:15 PM 48.9 °F 22.3 °F 35% 30.09 in 10.0 mi Calm Calm - N/A   Clear
11:35 PM 52.0 °F 21.2 °F 30% 30.09 in 10.0 mi Calm Calm - N/A   Clear
11:55 PM 51.8 °F 21.2 °F 30% 30.10 in 10.0 mi Calm Calm - N/A   Clear